User: anonymous
Location: Columbia
(38.9520°N, 92.3340°W)
Time: 23:36:37
(UTC-05:00)
Language:

Cosmos 1603 - Orbit

View from above orbital plane
View from above orbital plane
View from above satellite
View from above satellite

Ground track
Ground track

The orbit data is extracted from the following two-line orbital elements,

1 15333U 84106A   14245.75696951  .00000036  00000-0  43907-4 0   669
2 15333 071.0279 064.7720 0021629 314.0828 129.7899 14.13952384544306
Epoch (UTC): 02 September 2014 18:10:02
Eccentricity: 0.0021629
inclination: 71.0279°
perigee height: 830 km
apogee height: 861 km
right ascension of ascending node: 64.7720°
argument of perigee: 314.0828°
revolutions per day: 14.13952384
mean anomaly at epoch: 129.7899°
orbit number at epoch: 54430

The dashed part of the orbit path shows where the satellite is in the earth's shadow,  

DLR